Volver al catálogo

METEOR 1-10 DEB

ActivoPO
NORAD 8827·DEBRIS·🇷🇺 Russia

Lanzado Dec 29, 1971 desde Plesetsk Cosmodrome

Loading…

Próximos Pases (próximas 24 horas)

TLE

ActualizadoSource: Space-Track

Época: Sep 14, 2026, 08:53 UTC

1 08827U 71120D   26257.37056156  .00000110  00000-0  48390-4 0  9991
2 08827  81.2642 238.1286 0012926 341.3177  18.7521 14.17083887820760

Sigue METEOR 1-10 DEB en tiempo real con AllMySat

Download on the App Store